#timestamp,LO_Frequency,Hit,StdDev 
1507053615.8,286047008.0,N
1507053635.7,286047009.8,P
1507053655.5,286047010.2,Y
1507053675.3,286046998.5,P
1507053695.2,286046997.1,N
1507053715.0,286046997.8,N
1507053715.9,286046997.8,N
1507053735.7,286046995.6,N
1507053755.6,286046996.2,N
1507053775.4,286046998.4,N
1507053795.2,286046994.9,N
1507053815.1,286046996.1,N
1507053816.0,286046996.1,N
1507053835.8,286046994.0,N
1507053855.6,286046994.8,N
1507053875.5,286046991.7,N
1507053895.3,286046995.6,N
1507053915.1,286046998.4,N
1507053935.9,286046998.6,N
1507053955.7,286046998.9,N
1507053975.5,286046995.0,N
1507053995.4,286046998.9,N
1507054015.2,286046998.9,N
1507054035.0,286046998.5,N
1507054035.9,286046998.5,N
1507054055.7,286046993.6,N
1507054075.6,286046996.0,N
1507054095.4,286046996.5,N
1507054115.2,286047002.8,N
1507054135.1,286047003.0,N
1507054136.0,286047003.0,N
1507054155.8,286047002.1,N
1507054175.6,286047004.0,N
1507054195.5,286047005.9,N
1507054215.3,286047007.1,N
1507054235.1,286047012.1,Y
1507054255.9,286047011.7,P
1507054275.7,286047009.4,N
1507054295.5,286047005.0,N
1507054315.4,286047006.7,N
1507054335.2,286047003.0,N
1507054355.0,286047005.4,N
1507054355.9,286047005.4,N
1507054375.8,286047003.4,N
1507054395.6,286047003.9,N
1507054415.4,286047001.8,N
1507054435.3,286047004.0,N
1507054455.1,286047006.5,N
1507054456.0,286047006.5,N
1507054475.8,286047010.5,Y
1507054495.7,286047006.6,P
1507054515.5,286047006.3,P
1507054535.3,286047007.5,P
1507054555.2,286047004.6,Y
1507054575.9,286046996.8,P
1507054595.7,286046998.8,N
1507054615.6,286047003.6,N
1507054635.4,286047000.7,N
1507054655.2,286046992.1,N
1507054675.0,286046991.8,N
1507054675.9,286046991.8,N
1507054695.8,286046990.5,N
1507054715.6,286046986.9,N
1507054735.4,286046987.3,N
1507054755.3,286046991.5,N
1507054775.1,286046989.3,N
1507054795.8,286046989.2,N
1507054815.7,286046993.2,N
1507054835.5,286046990.7,N
1507054855.3,286046991.0,N
1507054875.2,286046992.6,N
1507054895.9,286046988.6,N
1507054915.7,286046990.0,N
1507054935.6,286046986.9,N
1507054955.4,286046989.5,N
1507054975.2,286046985.4,N
1507054995.0,286046988.0,N
1507054995.9,286046988.0,N
1507055015.8,286046984.9,N
1507055035.6,286046983.9,Y
1507055055.5,286046999.6,P
1507055075.3,286047002.6,N
1507055095.1,286046999.2,N
1507055115.8,286046999.6,N
1507055135.7,286046999.3,N
1507055155.5,286046995.7,N
1507055175.3,286046994.5,N
1507055195.2,286046994.1,N
1507055215.9,286046993.9,N
1507055235.7,286046998.0,N
1507055255.6,286046993.9,N
1507055275.4,286046994.6,N
1507055295.2,286046992.0,N
1507055315.1,286046994.7,N
1507055316.0,286046994.7,N
1507055335.8,286046993.5,N
1507055355.6,286046994.1,N
1507055375.4,286046992.2,N
1507055395.3,286046994.4,N
1507055415.1,286046990.6,Y
1507055435.9,286046997.1,P
1507055455.7,286046997.1,P
1507055475.5,286046997.7,P
1507055495.4,286046995.2,Y
1507055515.2,286046997.6,P
1507055535.0,286046999.4,N
1507055535.9,286046999.4,N
1507055555.7,286046998.0,N
1507055575.6,286046993.8,Y
1507055595.4,286046997.5,P
1507055615.2,286046996.5,P
1507055635.1,286046999.6,N
1507055636.0,286046999.6,N
1507055655.8,286046999.1,N
1507055675.6,286046999.0,N
1507055695.5,286046996.9,N
1507055715.3,286047000.4,N
1507055735.1,286047001.5,N
1507055755.9,286047002.5,N
1507055775.7,286047000.4,N
1507055795.5,286047001.0,N
1507055815.4,286046998.2,N
1507055835.2,286046998.4,N
1507055855.0,286046999.3,N
1507055855.9,286046999.3,N
1507055875.8,286046998.4,N
1507055895.6,286046999.1,N
1507055915.4,286046998.1,N
1507055935.3,286047000.4,N
1507055955.1,286046998.5,N
1507055956.0,286046998.5,N
1507055975.8,286047001.0,N
1507055995.6,286047002.6,N
1507056015.5,286047000.0,N
1507056035.3,286047001.4,N
1507056055.1,286047002.6,N
1507056075.9,286046999.1,N
1507056095.7,286046999.6,N
1507056115.5,286047002.8,N
1507056135.4,286047006.2,Y
1507056155.2,286047011.5,P
1507056175.0,286047012.7,N
1507056175.9,286047012.7,N
1507056195.8,286047009.7,N
1507056215.6,286047014.8,Y
1507056235.4,286047004.6,P
1507056255.3,286047008.2,P
1507056275.1,286047010.5,P
1507056295.8,286047006.5,N
1507056315.7,286047007.8,Y
1507056335.5,286046998.3,P
1507056355.3,286047002.2,N
1507056375.2,286047002.8,N
1507056395.9,286047001.1,N
1507056415.7,286047000.7,N
1507056435.6,286047001.3,N
1507056455.4,286047004.2,N
1507056475.2,286047004.4,N
1507056495.1,286047002.5,N
1507056496.0,286047002.5,N
1507056515.8,286047001.7,N
1507056535.6,286046999.9,N
1507056555.5,286046998.7,N
1507056575.3,286047002.4,N
1507056595.1,286047005.0,N
1507056615.8,286047002.1,N
1507056635.7,286047004.0,N
1507056655.5,286047003.4,N
1507056675.3,286047006.0,N
1507056695.2,286047000.2,N
1507056715.9,286047000.5,N
1507056735.7,286046998.3,N
1507056755.6,286047002.6,N
1507056775.4,286047001.9,N
1507056795.2,286046996.8,N
1507056815.1,286046997.8,N
1507056816.0,286046997.8,N
1507056835.8,286046993.1,N
1507056855.6,286046994.4,N
1507056875.4,286046993.8,N
1507056895.3,286046996.2,N
1507056915.1,286046993.9,N
1507056935.8,286046994.3,N
1507056955.7,286046991.3,N
1507056975.5,286046989.1,N
1507056995.3,286046987.2,N
1507057015.2,286046986.4,N
1507057035.9,286046984.4,N
1507057055.7,286046984.7,N
1507057075.6,286046984.4,N
1507057095.4,286046986.6,N
1507057115.2,286046984.2,N
1507057135.1,286046984.3,N
1507057136.0,286046984.3,N
1507057155.8,286046980.6,N
1507057175.6,286046984.0,N
1507057195.5,286046985.2,N
